This demonstration page uses our WeatherBlox Daily Observations layout. Learn more.

Hourly Observations for August 30, 2019

Temp ( °F °C ) Dew Point ( °F °C ) Humidity (%) Winds ( mph kmh ) Pressure ( in mb ) Visibility ( mi km ) Precip ( " mm )
12:15 am 00:15 Clear 64 17.5 57 14 80 80 NNE 6 9 29.97 1015 10 16.09344 0 0
12:35 am 00:35 Clear 63 17 57 14.1 83 83 NNE 6 9 30 1016 10 16.09344 0 0
12:55 am 00:55 Clear 62 16.6 57 13.8 84 84 NNE 3 6 30 1016 10 16.09344 0 0
1:15 am 01:15 Clear 62 16.4 57 13.8 85 85 NNE 6 9 30.03 1017 10 16.09344 0 0
1:35 am 01:35 Clear 61 16 57 13.7 86 86 NE 6 9 30.03 1017 10 16.09344 0 0
1:55 am 01:55 Clear 61 16 56 13.6 86 86 NNE 8 13 30.06 1018 10 16.09344 0 0
2:15 am 02:15 Clear 60 15.7 57 13.8 89 89 NNE 8 13 30.06 1018 10 16.09344 0 0
2:35 am 02:35 Clear 60 15.7 56 13.5 87 87 ENE 10 17 30.09 1019 10 16.09344 0 0
2:55 am 02:55 Clear 60 15.7 55 12.8 83 83 ENE 10 17 30.06 1018 10 16.09344 0 0
3:15 am 03:15 Clear 60 15.4 55 12.7 84 84 NE 10 17 30.06 1018 10 16.09344 0 0
3:35 am 03:35 Clear 59 15.1 55 12.5 85 85 NE 10 17 30.06 1018 10 16.09344 0 0
3:55 am 03:55 Clear 59 14.8 55 12.7 87 87 NNE 10 17 30.06 1018 10 16.09344 0 0
4:15 am 04:15 Clear 58 14.7 55 12.8 88 88 NE 10 17 30.06 1018 10 16.09344 0 0
4:35 am 04:35 Clear 58 14.7 55 12.7 88 88 NE 7 11 30.06 1018 10 16.09344 0 0
4:55 am 04:55 Clear 58 14.3 55 12.7 90 90 NE 6 9 30.09 1019 10 16.09344 0 0
5:15 am 05:15 Clear 57 14.1 55 12.8 92 92 NNE 3 6 30.09 1019 10 16.09344 0 0
5:35 am 05:35 Clear 56 13.6 55 12.8 95 95 N 5 7 30.12 1020 10 16.09344 0 0
5:55 am 05:55 Clear 56 13.5 55 12.7 95 95 NNE 5 7 30.12 1020 10 16.09344 0 0
6:15 am 06:15 Clear 56 13.5 55 12.7 95 95 NE 7 11 30.12 1020 10 16.09344 0 0
6:35 am 06:35 Clear 56 13.5 55 12.7 95 95 NE 6 9 30.12 1020 10 16.09344 0 0
6:55 am 06:55 Partly Cloudy 56 13.3 55 12.6 96 96 NE 7 11 30.12 1020 10 16.09344 0 0
7:15 am 07:15 Partly Cloudy 56 13.4 55 12.7 96 96 NE 7 11 30.12 1020 10 16.09344 0 0
7:35 am 07:35 Cloudy 56 13.6 55 13 96 96 NE 7 11 30.12 1020 10 16.09344 0 0
7:55 am 07:55 Cloudy 58 14.2 56 13.2 94 94 NE 9 15 30.12 1020 10 16.09344 0 0
8:15 am 08:15 Cloudy 58 14.7 56 13.2 91 91 ENE 12 19 30.12 1020 10 16.09344 0 0
8:35 am 08:35 Cloudy 59 15 56 13.5 91 91 ENE 10 17 30.09 1019 10 16.09344 0 0
8:55 am 08:55 Cloudy 60 15.6 56 13.6 88 88 ENE 14 22 30.12 1020 10 16.09344 0 0
9:15 am 09:15 Cloudy 61 16 57 13.7 86 86 ENE 13 20 30.12 1020 10 16.09344 0 0
9:35 am 09:35 Cloudy 62 16.4 57 14.1 86 86 E 14 22 30.12 1020 10 16.09344 0 0
9:55 am 09:55 Cloudy 63 17.1 58 14.6 85 85 E 10 17 30.12 1020 10 16.09344 0 0
10:15 am 10:15 Cloudy 63 17.1 59 14.9 87 87 E 8 13 30.12 1020 10 16.09344 0 0
10:35 am 10:35 Cloudy 63 17.1 59 15.1 88 88 E 7 11 30.12 1020 10 16.09344 0 0
10:55 am 10:55 Cloudy 63 17.1 60 15.8 92 92 E 7 11 30.12 1020 7 11.265408 0 0
11:15 am 11:15 Cloudy 63 17.1 60 15.8 92 92 E 6 9 30.15 1021 10 16.09344 0 0
11:35 am 11:35 Cloudy 64 17.5 61 16.1 92 92 ESE 7 11 30.09 1019 10 16.09344 0 0
11:55 am 11:55 Cloudy 65 18.6 62 16.9 90 90 E 5 7 30.09 1019 10 16.09344 0 0
12:15 pm 12:15 Mostly Cloudy 67 19.2 63 17.1 88 88 E 5 7 30.09 1019 10 16.09344 0 0
12:35 pm 12:35 Cloudy 69 20.6 65 18.3 87 87 E 6 9 30.09 1019 10 16.09344 0 0
12:55 pm 12:55 Cloudy 69 20.6 64 17.5 83 83 Calm 30.09 1019 10 16.09344 0 0
1:15 pm 13:15 Cloudy 70 21.1 64 17.5 80 80 E 3 6 30.06 1018 10 16.09344 0 0
1:35 pm 13:35 Cloudy 71 21.9 64 17.7 77 77 ENE 5 7 30.06 1018 10 16.09344 0 0
1:55 pm 13:55 Cloudy 72 22.1 64 17.8 77 77 E 6 9 30.06 1018 10 16.09344 0 0
2:15 pm 14:15 Cloudy 72 22.1 64 18 78 78 SE 7 11 30.06 1018 10 16.09344 0 0
2:35 pm 14:35 Cloudy 72 22.1 65 18.1 78 78 ESE 6 9 30.03 1017 10 16.09344 0 0
2:55 pm 14:55 Cloudy 72 22.3 65 18.3 78 78 ESE 7 11 30.03 1017 10 16.09344 0 0
3:15 pm 15:15 Cloudy 74 23.3 65 18.6 75 75 SE 7 11 30.03 1017 10 16.09344 0 0
3:35 pm 15:35 Cloudy 74 23.1 65 18.1 74 74 ESE 8 13 30.03 1017 10 16.09344 0 0
3:55 pm 15:55 Cloudy 73 23 65 18.3 75 75 ESE 8 13 30.03 1017 10 16.09344 0 0
4:15 pm 16:15 Cloudy 72 22.3 65 18.4 79 79 E 7 11 30.03 1017 10 16.09344 0 0
4:35 pm 16:35 Cloudy 73 22.7 65 18.4 77 77 ESE 8 13 30.03 1017 10 16.09344 0 0
4:55 pm 16:55 Cloudy 73 22.5 65 18.5 78 78 ESE 9 15 30.03 1017 10 16.09344 0 0
5:15 pm 17:15 Cloudy 73 22.5 65 18.5 78 78 E 12 19 30.03 1017 10 16.09344 0 0
5:35 pm 17:35 Cloudy 72 22.2 65 18.5 80 80 E 9 15 30.03 1017 10 16.09344 0 0
5:55 pm 17:55 Cloudy 72 22 66 18.7 82 82 E 8 13 30.03 1017 10 16.09344 0 0
6:15 pm 18:15 Cloudy 71 21.7 65 18.5 82 82 E 8 13 30.03 1017 10 16.09344 0 0
6:35 pm 18:35 Cloudy 72 22 66 18.9 83 83 ESE 8 13 30.03 1017 10 16.09344 0 0
6:55 pm 18:55 Cloudy 71 21.5 67 19.5 88 88 E 13 20 30.03 1017 10 16.09344 0 0
7:15 pm 19:15 Cloudy 71 21.5 67 19.5 88 88 ESE 10 17 30.03 1017 10 16.09344 0 0
7:35 pm 19:35 Cloudy 71 21.5 67 19.6 89 89 ESE 14 22 30 1016 10 16.09344 0 0
7:55 pm 19:55 Partly Cloudy 70 21.1 67 19.6 91 91 ESE 8 13 30 1016 10 16.09344 0 0
8:15 pm 20:15 Clear 69 20.8 66 19 90 90 SE 6 9 30 1016 10 16.09344 0 0
8:35 pm 20:35 Clear 69 20.6 66 18.7 89 89 ESE 8 13 30.06 1018 10 16.09344 0 0
8:55 pm 20:55 Mostly Cloudy 69 20.5 66 18.8 90 90 ESE 7 11 30.06 1018 10 16.09344 0 0
9:15 pm 21:15 Cloudy 69 20.5 66 18.8 90 90 ESE 8 13 30.06 1018 10 16.09344 0 0
9:35 pm 21:35 Cloudy 69 20.3 66 19 92 92 ESE 9 15 30.06 1018 10 16.09344 0 0
9:55 pm 21:55 Cloudy 68 20.1 66 18.8 92 92 SE 10 17 30.06 1018 10 16.09344 0 0
10:15 pm 22:15 Mostly Cloudy 68 20 66 18.8 93 93 ESE 9 15 30.06 1018 10 16.09344 0 0
10:35 pm 22:35 Mostly Cloudy 67 19.7 66 18.8 95 95 E 6 9 30.09 1019 10 16.09344 0 0
10:55 pm 22:55 Cloudy 67 19.7 66 18.8 95 95 E 6 9 30.09 1019 10 16.09344 0 0
11:15 pm 23:15 Cloudy 67 19.5 66 18.8 96 96 E 6 9 30.09 1019 10 16.09344 0 0
11:35 pm 23:35 Cloudy 67 19.3 66 18.8 97 97 ESE 7 11 30.09 1019 10 16.09344 0 0
11:55 pm 23:55 Cloudy 67 19.3 66 18.7 96 96 SE 7 11 30.09 1019 10 16.09344 0 0

Powered by AerisWeather